Flag for U.S.A. Weather past 2 weeks in Chicago, Illinois, U.S.A.

Now
75 °F

Clear.


Feels Like: 78 °F
Forecast: 72 / 85 °F
Wind: 8 mph from Northwest

Location: Chicago Midway Airport

Current Time: Jul 31, 2015 at 2:45:04 AM

Latest Report: Jul 31, 2015 at 1:53 AM


Visibility: 10 mi

Pressure: 29.99 "Hg

Humidity: 54%

Dew point: 57 °F

Location of ChicagoLocation

Historic Weather in Chicago — Graph

°F

Chicago temperature yesterday

Maximum temperature yesterday: 89 °F (at 2:53 PM)
Minimum temperature yesterday: 69 °F (at 5:53 AM)
Average temperature yesterday: 80 °F

Past Weeks' High & Low Weather Summary

 TemperatureHumidityPressure
High93 °F (Jul 28, 3:53 PM)88% (Jul 17, 4:53 AM)30.03 "Hg (Jul 17, 4:53 AM)
Low64 °F (Jul 16, 1:53 AM)24% (Jul 29, 3:53 PM)29.71 "Hg (Jul 20, 6:53 PM)
Average79 °F59%29.89 "Hg
* Reported Jul 16 1:53 AM — Jul 31 1:53 AM, Chicago, Weather by CustomWeather, © 2015

Note: Actual official high and low records may vary slightly from our data, if they occured in-between our weather recording intervals... More about our weather records

Advertising

Chicago weather history for previous 24 hours

 ConditionsComfort  
Time TempWeatherWind HumidityBarometerVisibility
1:53 AM
Fri, Jul 31
75 °FClear.8 mph54%29.99 "Hg10 mi
12:53 AM77 °FClear.8 mph52%29.98 "Hg10 mi
11:53 PM
Thu, Jul 30
78 °FClear.9 mph52%29.98 "Hg10 mi
10:53 PM80 °FClear.10 mph51%29.98 "Hg10 mi
9:53 PM80 °FClear.7 mph51%29.97 "Hg10 mi
8:53 PM83 °FSunny.7 mph43%29.96 "Hg10 mi
7:53 PM85 °FPassing clouds.14 mph36%29.96 "Hg10 mi
6:53 PM87 °FPassing clouds.16 mph30%29.96 "Hg10 mi
5:53 PM88 °FPassing clouds.17 mph29%29.97 "Hg10 mi
4:53 PM89 °FPassing clouds.15 mph27%29.98 "Hg10 mi
3:53 PM89 °FPassing clouds.14 mph27%29.99 "Hg10 mi
2:53 PM89 °FPassing clouds.16 mph27%30.00 "Hg10 mi
1:53 PM88 °FPassing clouds.13 mph29%30.01 "Hg10 mi
12:53 PM88 °FPassing clouds.12 mph30%30.02 "Hg10 mi
11:53 AM87 °FSunny.15 mph30%30.03 "Hg10 mi
10:53 AM84 °FSunny.15 mph36%30.03 "Hg10 mi
9:53 AM82 °FSunny.10 mph41%30.03 "Hg10 mi
8:53 AM77 °FSunny.8 mph50%30.03 "Hg10 mi
7:53 AM74 °FSunny.12 mph57%30.02 "Hg10 mi
6:53 AM71 °FSunny.8 mph63%30.02 "Hg10 mi
5:53 AM69 °FClear.7 mph66%30.01 "Hg10 mi
4:53 AM71 °FClear.8 mph61%29.99 "Hg10 mi
3:53 AM72 °FClear.10 mph57%29.98 "Hg10 mi
2:53 AM72 °FClear.9 mph57%29.98 "Hg10 mi
Weather by CustomWeather, © 2015

See weather overviewHow to use our weather pages